TimeEST,TemperatureF,Dew PointF,Humidity,Sea Level PressureIn,VisibilityMPH,Wind Direction,Wind SpeedMPH,Gust SpeedMPH,PrecipitationIn,Events,Conditions,WindDirDegrees,DateUTC
12:01 AM,23.0,23.0,100,29.92,0.5,Calm,Calm,-,N/A,Fog,Light Freezing Fog,0,2013-02-14 05:01:00
12:27 AM,24.8,24.8,100,29.93,2.0,Calm,Calm,-,N/A,,Clear,0,2013-02-14 05:27:00
12:36 AM,21.2,21.2,100,29.93,0.8,Calm,Calm,-,N/A,,Clear,0,2013-02-14 05:36:00
12:53 AM,26.1,26.1,100,29.95,2.0,Calm,Calm,-,N/A,,Clear,0,2013-02-14 05:53:00
12:59 AM,23.0,23.0,100,29.93,0.8,Calm,Calm,-,N/A,,Clear,0,2013-02-14 05:59:00
1:43 AM,23.0,21.2,93,29.94,2.0,Calm,Calm,-,N/A,,Mostly Cloudy,0,2013-02-14 06:43:00
1:50 AM,23.0,23.0,100,29.93,4.0,Calm,Calm,-,N/A,,Scattered Clouds,0,2013-02-14 06:50:00
1:53 AM,24.1,24.1,100,29.95,4.0,Calm,Calm,-,N/A,,Scattered Clouds,0,2013-02-14 06:53:00
2:53 AM,27.0,26.1,96,29.96,5.0,Calm,Calm,-,N/A,,Clear,0,2013-02-14 07:53:00
3:44 AM,24.8,24.8,100,29.93,1.8,Calm,Calm,-,N/A,,Clear,0,2013-02-14 08:44:00
3:53 AM,25.0,25.0,100,29.95,1.5,Calm,Calm,-,N/A,,Clear,0,2013-02-14 08:53:00
4:14 AM,26.6,26.6,100,29.93,0.8,Calm,Calm,-,N/A,,Clear,0,2013-02-14 09:14:00
4:21 AM,26.6,26.6,100,29.93,2.0,Calm,Calm,-,N/A,,Clear,0,2013-02-14 09:21:00
4:39 AM,24.8,24.8,100,29.92,1.0,Calm,Calm,-,N/A,,Clear,0,2013-02-14 09:39:00
4:46 AM,24.8,24.8,100,29.92,0.5,Calm,Calm,-,N/A,Fog,Light Freezing Fog,0,2013-02-14 09:46:00
4:53 AM,26.1,26.1,100,29.94,0.8,Calm,Calm,-,N/A,,Clear,0,2013-02-14 09:53:00
5:00 AM,26.6,26.6,100,29.93,1.5,Calm,Calm,-,N/A,,Clear,0,2013-02-14 10:00:00
5:11 AM,24.8,24.8,100,29.93,0.5,Calm,Calm,-,N/A,Fog,Light Freezing Fog,0,2013-02-14 10:11:00
5:17 AM,24.8,24.8,100,29.94,1.2,Calm,Calm,-,N/A,,Mostly Cloudy,0,2013-02-14 10:17:00
5:27 AM,26.6,26.6,100,29.93,2.5,Calm,Calm,-,N/A,,Mostly Cloudy,0,2013-02-14 10:27:00
5:38 AM,26.6,26.6,100,29.93,3.0,Calm,Calm,-,N/A,,Overcast,0,2013-02-14 10:38:00
5:53 AM,28.0,28.0,100,29.94,4.0,SSW,4.6,-,N/A,,Overcast,200,2013-02-14 10:53:00
6:53 AM,30.9,30.9,100,29.93,8.0,South,6.9,-,N/A,,Overcast,190,2013-02-14 11:53:00
7:16 AM,32.0,32.0,100,29.93,8.0,South,5.8,-,N/A,,Overcast,180,2013-02-14 12:16:00
7:53 AM,33.1,33.1,100,29.95,7.0,SSE,4.6,-,N/A,,Overcast,160,2013-02-14 12:53:00
8:53 AM,34.0,33.1,96,29.96,6.0,South,8.1,-,N/A,,Overcast,190,2013-02-14 13:53:00
9:53 AM,35.1,33.1,92,29.95,8.0,SSW,9.2,-,N/A,,Overcast,200,2013-02-14 14:53:00
10:53 AM,37.0,34.0,89,29.94,10.0,South,9.2,-,N/A,,Overcast,190,2013-02-14 15:53:00
11:11 AM,37.4,33.8,87,29.92,10.0,South,10.4,-,N/A,,Overcast,190,2013-02-14 16:11:00
11:53 AM,39.9,35.1,83,29.93,10.0,South,11.5,-,N/A,,Overcast,170,2013-02-14 16:53:00
12:29 PM,44.6,37.4,76,29.90,10.0,South,12.7,-,N/A,,Scattered Clouds,190,2013-02-14 17:29:00
12:53 PM,46.0,37.0,71,29.90,10.0,SSW,17.3,-,N/A,,Scattered Clouds,210,2013-02-14 17:53:00
1:53 PM,48.9,37.0,64,29.87,10.0,SSW,13.8,-,N/A,,Mostly Cloudy,200,2013-02-14 18:53:00
2:53 PM,52.0,36.0,54,29.86,10.0,SSW,12.7,25.3,N/A,,Clear,210,2013-02-14 19:53:00
3:53 PM,53.1,35.1,50,29.86,10.0,SW,17.3,24.2,N/A,,Partly Cloudy,220,2013-02-14 20:53:00
4:53 PM,53.1,33.1,47,29.87,10.0,WSW,15.0,21.9,N/A,,Mostly Cloudy,250,2013-02-14 21:53:00
5:53 PM,52.0,33.1,49,29.90,10.0,West,12.7,18.4,N/A,,Scattered Clouds,260,2013-02-14 22:53:00
6:53 PM,48.0,33.1,56,29.93,10.0,WSW,9.2,-,N/A,,Clear,250,2013-02-14 23:53:00
7:53 PM,45.0,33.1,63,29.95,10.0,SW,9.2,-,N/A,,Clear,230,2013-02-15 00:53:00
8:53 PM,45.0,33.1,63,29.96,10.0,SW,8.1,-,N/A,,Mostly Cloudy,220,2013-02-15 01:53:00
9:53 PM,45.0,33.1,63,30.00,10.0,NW,9.2,-,N/A,,Clear,310,2013-02-15 02:53:00
10:53 PM,43.0,32.0,65,30.02,10.0,NNW,4.6,-,N/A,,Mostly Cloudy,330,2013-02-15 03:53:00
11:53 PM,39.9,30.0,68,30.03,10.0,NW,6.9,-,N/A,,Mostly Cloudy,320,2013-02-15 04:53:00